Location: Taylor Dark Sky Site
(39.1017°N, 87.9564°W)
Time: 19:33:58
(UTC-05:00)

Amateur Radio Satellites - All Passes

Search period start: 24 October 2014 19:03
Search period end: 25 October 2014 19:03
Location: Taylor Dark Sky Site, 39.1017°N, 87.9564°W

Satellite Date Start Highest point End Downlink Frequencies (MHz)
Time Altitude Azimuth
Hamsat 24 Oct 19:15:27 19:16:56 12° 269° (W) 19:18:26 145.90 MHz
HO-68 24 Oct 19:17:23 19:21:46 18° 55° (NE) 19:26:09 435.675 MHz FM
KITSAT 1 24 Oct 19:33:32 19:39:05 20° 36° (NE) 19:44:36 435.175 FM
OPAL 24 Oct 19:33:40 19:37:03 19° 298° (WNW) 19:40:25 ?
STRAND 1 24 Oct 19:37:37 19:42:46 66° 102° (ESE) 19:47:51 ?
AO-40 24 Oct 20:11:25 22:31:58 34° 206° (SSW) 03:18:22 Beacon 2401.320
ISS 24 Oct 20:15:18 20:18:25 37° 225° (SW) 20:21:31 145.800 FM
RS-15 24 Oct 20:40:01 20:47:38 22° 101° (E) 20:55:08 29.354 - 29.394 USB, Beacon 29.352 USB
UKube-1 24 Oct 20:46:15 20:49:25 20° 66° (ENE) 20:52:35 145.840 MHz, 145.915 MHz
HO-68 24 Oct 21:01:19 21:08:29 90° 252° (WSW) 21:15:43 435.675 MHz FM
STRAND 1 24 Oct 21:18:29 21:21:21 15° 298° (WNW) 21:24:14 ?
FUNcube-1 24 Oct 21:25:16 21:28:37 21° 67° (ENE) 21:31:58 145.950 - 145.970 MHz USB
Oscar 11 24 Oct 21:26:44 21:30:53 47° 73° (ENE) 21:35:03 145.825 FM, Beacon 2401.500 USB
KITSAT 1 24 Oct 21:27:54 21:36:00 73° 59° (ENE) 21:44:02 435.175 FM
SO-50 24 Oct 21:39:03 21:43:47 50° 54° (NE) 21:48:31 436.795 FM
ZACube-1 24 Oct 22:15:18 22:19:53 71° 76° (ENE) 22:24:25 437.345 MHz
UKube-1 24 Oct 22:21:22 22:25:21 35° 262° (W) 22:29:21 145.840 MHz, 145.915 MHz
RS-15 24 Oct 22:47:26 22:58:29 86° 301° (WNW) 23:09:29 29.354 - 29.394 USB, Beacon 29.352 USB
HO-68 24 Oct 22:53:24 22:57:02 14° 270° (W) 23:00:42 435.675 MHz FM
FUNcube-1 24 Oct 23:00:29 23:04:44 37° 262° (W) 23:08:58 145.950 - 145.970 MHz USB
UOSAT-12 24 Oct 23:03:25 23:07:43 34° 51° (NE) 23:11:56 437.025 FM, 437.400 FM
Oscar 11 24 Oct 23:05:03 23:07:18 14° 268° (W) 23:09:34 145.825 FM, Beacon 2401.500 USB
SO-50 24 Oct 23:20:34 23:23:58 19° 250° (WSW) 23:27:22 436.795 FM
KITSAT 1 24 Oct 23:24:38 23:30:35 23° 256° (WSW) 23:36:32 435.175 FM
MaSat-1 24 Oct 23:50:27 23:54:39 85° 114° (ESE) 23:58:28 437.345 MHz
ZACube-1 24 Oct 23:56:05 23:56:41 10° 270° (W) 23:57:17 437.345 MHz
UOSAT-12 25 Oct 00:43:46 00:47:44 27° 248° (WSW) 00:51:37 437.025 FM, 437.400 FM
JAS-1B 25 Oct 00:56:29 00:59:41 13° 92° (E) 01:03:05 435.800 - 435.900 CW/SSB
RS-15 25 Oct 01:03:33 01:12:34 28° 327° (NNW) 01:21:41 29.354 - 29.394 USB, Beacon 29.352 USB
Oscar 16 25 Oct 01:05:17 01:06:59 12° 90° (E) 01:08:41 437.025 USB, Beacon 2401.1428
Oscar 10/S400 25 Oct 01:24:19 02:24:34 20° 244° (WSW) 04:41:20 145.825 - 145.975 CW/USB, Beacon 145.810 USB
Oscar 19 25 Oct 01:56:10 02:00:56 38° 98° (E) 02:05:40 437.125 CW, 437.150 USB
AO-27 25 Oct 02:14:41 02:18:49 23° 95° (E) 02:22:56 436.795 MHz FM
AO-Echo 25 Oct 02:35:46 02:40:57 51° 100° (E) 02:46:06 ?
Oscar 16 25 Oct 02:41:44 02:46:52 75° 285° (WNW) 02:51:57 437.025 USB, Beacon 2401.1428
Sapphire 25 Oct 02:43:28 02:46:36 16° 104° (ESE) 02:49:45 437.095 MHz 1200 baud AX-25 AFSK
JAS-1B 25 Oct 02:43:58 02:50:44 85° 104° (ESE) 02:58:53 435.800 - 435.900 CW/SSB
Uribyol 2 25 Oct 03:01:31 03:06:44 70° 102° (ESE) 03:11:54 436.500 FM
PCSat 25 Oct 03:04:23 03:08:53 27° 108° (ESE) 03:13:24 145.825 MHz
ITAMSAT 1 25 Oct 03:07:35 03:12:49 75° 103° (ESE) 03:18:01 435.822 SSB
RS-15 25 Oct 03:23:45 03:30:19 17° 3° (N) 03:36:58 29.354 - 29.394 USB, Beacon 29.352 USB
Gurwin Techsat 1B 25 Oct 03:28:20 03:33:37 62° 101° (E) 03:38:52 435.225 FM
OPAL 25 Oct 03:33:50 03:34:29 10° 57° (ENE) 03:35:07 ?
Oscar 19 25 Oct 03:35:59 03:40:03 24° 294° (WNW) 03:44:06 437.125 CW, 437.150 USB
TMSAT-1 25 Oct 03:39:29 03:44:43 58° 101° (E) 03:49:56 436.925 FM
AO-27 25 Oct 03:53:34 03:58:26 40° 290° (WNW) 04:03:16 436.795 MHz FM
AO-Echo 25 Oct 04:15:28 04:19:18 21° 295° (WNW) 04:23:08 ?
AO-7 25 Oct 04:20:20 04:27:41 34° 97° (E) 04:35:00 29.400 - 29.500 MHz
Uosat F 25 Oct 04:21:51 04:25:31 20° 94° (E) 04:29:09 435.120 FM
Sapphire 25 Oct 04:24:03 04:29:25 66° 300° (WNW) 04:34:50 437.095 MHz 1200 baud AX-25 AFSK
JAS-1B 25 Oct 04:36:39 04:40:48 17° 299° (WNW) 04:45:21 435.800 - 435.900 CW/SSB
Uribyol 2 25 Oct 04:42:48 04:45:35 15° 299° (WNW) 04:48:21 436.500 FM
PCSat 25 Oct 04:47:01 04:52:05 40° 305° (NW) 04:57:11 145.825 MHz
ITAMSAT 1 25 Oct 04:49:05 04:51:38 14° 299° (WNW) 04:54:12 435.822 SSB
OPAL 25 Oct 05:07:23 05:12:32 81° 73° (ENE) 05:17:39 ?
Gurwin Techsat 1B 25 Oct 05:09:45 05:13:02 17° 298° (WNW) 05:16:19 435.225 FM
STRAND 1 25 Oct 05:18:24 05:19:08 10° 59° (ENE) 05:19:52 ?
TMSAT-1 25 Oct 05:20:41 05:24:08 18° 297° (WNW) 05:27:35 436.925 FM
RS-15 25 Oct 05:38:02 05:47:44 33° 38° (NE) 05:57:41 29.354 - 29.394 USB, Beacon 29.352 USB
JAS-2 25 Oct 05:56:17 06:03:53 52° 98° (E) 06:11:24 435.800 - 435.900 CW/SSB, 435.910 FM
Uosat F 25 Oct 05:59:41 06:04:29 44° 289° (WNW) 06:09:14 435.120 FM
Sapphire 25 Oct 06:12:09 06:13:55 12° 320° (NW) 06:15:41 437.095 MHz 1200 baud AX-25 AFSK
AO-7 25 Oct 06:12:42 06:20:40 53° 295° (WNW) 06:28:39 29.400 - 29.500 MHz
Saudisat 1A 25 Oct 06:15:09 06:15:32 10° 107° (ESE) 06:15:55 436.775 MHz
OPAL 25 Oct 06:50:43 06:51:56 11° 268° (W) 06:53:09 ?
STRAND 1 25 Oct 06:52:21 06:57:28 85° 76° (ENE) 07:02:39 ?
Hamsat 25 Oct 06:58:58 07:03:07 62° 285° (WNW) 07:07:16 145.90 MHz
JAS-2 25 Oct 07:41:44 07:48:31 35° 295° (WNW) 07:55:21 435.800 - 435.900 CW/SSB, 435.910 FM
Saudisat 1A 25 Oct 07:50:04 07:54:27 74° 303° (WNW) 07:58:51 436.775 MHz
RS-15 25 Oct 07:50:10 08:01:24 83° 242° (WSW) 08:13:08 29.354 - 29.394 USB, Beacon 29.352 USB
SO-67 25 Oct 07:58:23 08:01:51 87° 102° (ESE) 08:05:18 435.3500 MHz FM
AO-7 25 Oct 08:09:36 08:11:33 11° 316° (NW) 08:13:30 29.400 - 29.500 MHz
PANSAT 25 Oct 08:23:50 08:26:13 16° 175° (S) 08:28:36 not established
HO-68 25 Oct 08:32:05 08:36:40 18° 91° (E) 08:41:12 435.675 MHz FM
Saudisat 1A 25 Oct 09:33:48 09:34:47 11° 321° (NW) 09:35:47 436.775 MHz
MaSat-1 25 Oct 09:37:50 09:40:20 54° 248° (WSW) 09:42:40 437.345 MHz
PANSAT 25 Oct 10:03:29 10:05:43 15° 188° (S) 10:07:56 not established
RS-15 25 Oct 10:05:14 10:12:05 19° 261° (W) 10:19:09 29.354 - 29.394 USB, Beacon 29.352 USB
ZACube-1 25 Oct 10:07:32 10:09:44 14° 91° (E) 10:11:55 437.345 MHz
UKube-1 25 Oct 10:10:19 10:14:27 40° 99° (E) 10:18:33 145.840 MHz, 145.915 MHz
HO-68 25 Oct 10:17:49 10:25:02 79° 288° (WNW) 10:32:12 435.675 MHz FM
FUNcube-1 25 Oct 10:50:39 10:54:43 44° 99° (E) 10:58:41 145.950 - 145.970 MHz USB
Oscar 11 25 Oct 10:51:18 10:55:36 70° 285° (WNW) 10:59:52 145.825 FM, Beacon 2401.500 USB
ISS 25 Oct 11:21:38 11:23:10 13° 128° (SE) 11:24:42 145.800 FM
Sapphire 25 Oct 11:31:40 11:34:15 13° 42° (NE) 11:36:49 437.095 MHz 1200 baud AX-25 AFSK
Oscar 10/S400 25 Oct 11:37:29 11:57:15 25° 152° (SSE) 12:11:35 145.825 - 145.975 CW/USB, Beacon 145.810 USB
ZACube-1 25 Oct 11:42:20 11:46:23 44° 287° (WNW) 11:50:20 437.345 MHz
UKube-1 25 Oct 11:47:24 11:50:19 18° 295° (WNW) 11:53:13 145.840 MHz, 145.915 MHz
PCSat 25 Oct 11:53:12 11:57:11 20° 47° (NE) 12:01:09 145.825 MHz
SO-50 25 Oct 11:54:12 11:57:25 20° 110° (ESE) 12:00:42 436.795 FM
KITSAT 1 25 Oct 11:54:28 12:02:20 60° 113° (ESE) 12:10:14 435.175 FM
HO-68 25 Oct 12:07:53 12:11:36 15° 306° (NW) 12:15:18 435.675 MHz FM
Oscar 16 25 Oct 12:20:35 12:23:51 17° 63° (ENE) 12:27:06 437.025 USB, Beacon 2401.1428
FUNcube-1 25 Oct 12:28:17 12:30:42 15° 295° (WNW) 12:33:05 145.950 - 145.970 MHz USB
Uribyol 2 25 Oct 12:42:56 12:44:44 12° 59° (ENE) 12:46:33 436.500 FM
ITAMSAT 1 25 Oct 12:48:43 12:50:53 13° 60° (ENE) 12:53:04 435.822 SSB
ISS 25 Oct 12:56:10 12:59:28 64° 323° (NW) 13:02:47 145.800 FM
Oscar 19 25 Oct 13:11:52 13:16:49 50° 72° (ENE) 13:21:47 437.125 CW, 437.150 USB
Gurwin Techsat 1B 25 Oct 13:13:04 13:14:28 11° 59° (ENE) 13:15:53 435.225 FM
Sapphire 25 Oct 13:13:07 13:18:35 78° 61° (ENE) 13:24:00 437.095 MHz 1200 baud AX-25 AFSK
UOSAT-12 25 Oct 13:16:14 13:17:59 12° 107° (ESE) 13:19:45 437.025 FM, 437.400 FM
TMSAT-1 25 Oct 13:24:50 13:25:20 10° 58° (ENE) 13:25:50 436.925 FM
JAS-1B 25 Oct 13:29:40 13:35:34 62° 72° (ENE) 13:41:10 435.800 - 435.900 CW/SSB
AO-27 25 Oct 13:31:38 13:36:13 32° 68° (ENE) 13:40:50 436.795 MHz FM
SO-50 25 Oct 13:33:21 13:37:37 42° 307° (NW) 13:42:02 436.795 FM
PCSat 25 Oct 13:35:41 13:41:03 63° 246° (WSW) 13:46:22 145.825 MHz
AO-Echo 25 Oct 13:47:37 13:52:22 55° 73° (ENE) 13:57:19 ?
KITSAT 1 25 Oct 13:50:59 13:58:08 34° 313° (NW) 14:05:20 435.175 FM
Oscar 16 25 Oct 13:57:37 14:02:42 58° 259° (W) 14:07:48 437.025 USB, Beacon 2401.1428
Uribyol 2 25 Oct 14:18:12 14:23:25 88° 256° (WSW) 14:28:41 436.500 FM
ITAMSAT 1 25 Oct 14:24:26 14:29:38 82° 257° (WSW) 14:34:54 435.822 SSB
ISS 25 Oct 14:34:44 14:36:42 15° 342° (NNW) 14:38:40 145.800 FM
Gurwin Techsat 1B 25 Oct 14:48:17 14:53:35 86° 76° (ENE) 14:58:56 435.225 FM
UOSAT-12 25 Oct 14:52:52 14:57:29 71° 303° (WNW) 15:02:12 437.025 FM, 437.400 FM
Oscar 19 25 Oct 14:52:56 14:56:25 18° 267° (W) 14:59:54 437.125 CW, 437.150 USB
Sapphire 25 Oct 14:58:55 15:01:16 13° 257° (WSW) 15:03:37 437.095 MHz 1200 baud AX-25 AFSK
TMSAT-1 25 Oct 14:59:04 15:04:21 81° 75° (ENE) 15:09:41 436.925 FM
AO-27 25 Oct 15:11:12 15:15:41 29° 264° (W) 15:20:13 436.795 MHz FM
AO-7 25 Oct 15:18:06 15:25:42 43° 62° (ENE) 15:33:19 29.400 - 29.500 MHz
JAS-1B 25 Oct 15:23:26 15:26:43 15° 268° (W) 15:29:54 435.800 - 435.900 CW/SSB
AO-Echo 25 Oct 15:28:42 15:31:31 15° 269° (W) 15:34:24 ?
Uosat F 25 Oct 15:34:02 15:38:05 25° 66° (ENE) 15:42:11 435.120 FM
KITSAT 1 25 Oct 15:54:50 15:56:34 11° 340° (NNW) 15:58:17 435.175 FM
JAS-2 25 Oct 16:09:30 16:13:31 18° 57° (ENE) 16:17:49 435.800 - 435.900 CW/SSB, 435.910 FM
Saudisat 1A 25 Oct 16:17:46 16:22:09 62° 56° (NE) 16:26:31 436.775 MHz
Gurwin Techsat 1B 25 Oct 16:33:32 16:34:11 10° 271° (W) 16:34:51 435.225 FM
UOSAT-12 25 Oct 16:36:57 16:38:30 11° 322° (NW) 16:40:03 437.025 FM, 437.400 FM
TMSAT-1 25 Oct 16:43:17 16:44:51 11° 271° (W) 16:46:26 436.925 FM
AO-7 25 Oct 17:10:42 17:18:24 43° 260° (W) 17:26:10 29.400 - 29.500 MHz
Uosat F 25 Oct 17:12:06 17:16:41 36° 262° (W) 17:21:18 435.120 FM
OPAL 25 Oct 17:19:19 17:23:08 22° 97° (E) 17:26:56 ?
ISS 25 Oct 17:49:50 17:52:18 19° 23° (NNE) 17:54:46 145.800 FM
Hamsat 25 Oct 17:50:47 17:54:59 79° 77° (ENE) 17:59:11 145.90 MHz
JAS-2 25 Oct 17:51:46 17:57:38 74° 258° (WSW) 18:04:22 435.800 - 435.900 CW/SSB, 435.910 FM
Saudisat 1A 25 Oct 17:59:15 18:01:11 13° 252° (WSW) 18:03:07 436.775 MHz
SO-67 25 Oct 18:30:21 18:33:03 22° 71° (ENE) 18:35:46 435.3500 MHz FM
